This is the latest recevied weather packets stored in our database for station/object F4GCF-13. If no packets are shown the sender has not sent any weather packets the latest 1 day(s).
| Time | Temp. | Humidity | Pressure | Rain* | Wind** | Luminosity | Snow |
|---|---|---|---|---|---|---|---|
| 1777970857 | 14.44° C | 93% | 1015 hPa | 0 mm | 1.79 m/s, 266° | - | - |
| 1777970557 | 14.44° C | 93% | 1015 hPa | 0 mm | 2.68 m/s, 256° | - | - |
| 1777970257 | 14.44° C | 92% | 1014 hPa | 0 mm | 2.68 m/s, 261° | - | - |
| 1777969959 | 13.89° C | 92% | 1014 hPa | 0 mm | 2.24 m/s, 254° | - | - |
| 1777969658 | 14.44° C | 92% | 1014 hPa | 0 mm | 2.68 m/s, 258° | - | - |
| 1777969358 | 14.44° C | 93% | 1015 hPa | 0 mm | 2.68 m/s, 268° | - | - |
| 1777969058 | 15° C | 93% | 1015 hPa | 0 mm | 2.24 m/s, 255° | - | - |
| 1777968757 | 15° C | 94% | 1015 hPa | 0 mm | 2.24 m/s, 255° | - | - |
| 1777968457 | 14.44° C | 94% | 1015 hPa | 0 mm | 2.68 m/s, 248° | - | - |
| 1777968158 | 14.44° C | 94% | 1015 hPa | 0 mm | 2.68 m/s, 248° | - | - |
| 1777967857 | 14.44° C | 95% | 1015 hPa | 0 mm | 1.79 m/s, 248° | - | - |
| 1777967557 | 13.89° C | 95% | 1015 hPa | 0 mm | 2.68 m/s, 258° | - | - |
| 1777966958 | 13.33° C | 95% | 1015 hPa | 0 mm | 2.68 m/s, 248° | - | - |
| 1777966658 | 13.33° C | 95% | 1015 hPa | 0 mm | 2.24 m/s, 244° | - | - |
| 1777966057 | 13.89° C | 96% | 1015 hPa | 0 mm | 1.34 m/s, 253° | - | - |
| 1777965757 | 13.89° C | 96% | 1015 hPa | 0 mm | 1.34 m/s, 256° | - | - |
| 1777965458 | 13.89° C | 97% | 1015 hPa | 0 mm | 2.68 m/s, 277° | - | - |
| 1777965158 | 13.33° C | 97% | 1015 hPa | 0 mm | 2.24 m/s, 247° | - | - |
| 1777964858 | 13.33° C | 97% | 1014 hPa | 0 mm | 2.24 m/s, 259° | - | - |
| 1777964557 | 13.33° C | 97% | 1014 hPa | 0 mm | 2.24 m/s, 248° | - | - |
| 1777964259 | 13.33° C | 97% | 1014 hPa | 0 mm | 2.68 m/s, 248° | - | - |
| 1777963957 | 12.78° C | 97% | 1014 hPa | 0 mm | 2.68 m/s, 249° | - | - |
| 1777963659 | 12.78° C | 98% | 1014 hPa | 0 mm | 1.79 m/s, 256° | - | - |
| 1777963358 | 12.78° C | 98% | 1014 hPa | 0 mm | 1.79 m/s, 259° | - | - |
| 1777963058 | 12.78° C | 98% | 1015 hPa | 0 mm | 2.24 m/s, 255° | - | - |
* Rain latest hour (hover to see other rain measurements)
** Current wind speed in m/s (hover to see current wind gust speed)